Weather in Hermosillo

Mexico     29°05′43″N   110°57′38″W
temp.,
°C
wind,
m/s
gust,
m/s
humid.,
%
clouds,
%
prec.,
mm/h
press.,
hPa
HPBL,
m
17 august, wed
wed1723:00+28ene91175100 9.1 1010284
02:00+26se61077100 1.6 1010362
05:00+25e247999 2.9 1011254
08:00+27se346890 0.0 1012500
11:00+31se335384 0.0 10121078
14:00+33sw434599 0.0 10111716
17:00+34sw4445100 0.0 10091888
20:00+30wsw3464100 0.1 1011274
18 august, thu
thu1823:00+29nne1271100 3.8 101195
02:00+27ne3379100 1.3 1011206
05:00+25nne338897 6.3 1011141
08:00+25ene2384100 4.3 1012214
11:00+28sse337372 4.7 1012609
14:00+31ssw436099 0.9 10101376
17:00+29sse1270100 8.7 100978
20:00+26sse3584100 5.8 1010330
19 august, fri
fri1923:00+26e2384100 7.5 1010132
02:00+25ne3486100 3.6 1009166
05:00+25ne3486100 5.7 1008146
08:00+25ene3483100 1.6 1009215
11:00+28se347365 6.9 1009529
14:00+29ssw236750 6.1 1008884
17:00+25w4593100 14.6 1007248
20:00+25nne128770 3.5 1008114
20 august, sat
sat2023:00+26ese22846 6.4 100934
02:00+25ese238328 1.4 100868
05:00+25e238487 2.1 100990
08:00+27ese3571100 1.4 1010334
11:00+30s456312 3.9 10111062
14:00+32sse465680 3.7 10091579
17:00+29wsw246744 7.5 1009432
20:00+27wnw116845 0.3 101136
21 august, sun
sun2123:00+27e227015 0.3 101226
02:00+26ese237398 0.0 101251
05:00+26e237696 0.0 101386
08:00+27e357094 0.0 1014384
11:00+30sse335345 0.0 10141266
14:00+33sw1245100 0.1 10122119
17:00+30wsw546147 0.5 1011290
20:00+29ssw126499 0.0 1012166